CZ-3C DEB, 40202

Orbit data source: Space-Track

CZ-3C DEB, 40202 is space debris in HEO originally from a launch on Fri, 24 Feb 2012 UTC launched from the Xichang Space Center, China (XSC). Debris objects in space refer to the collection of defunct objects orbiting the Earth. Examples of debris include non-operational satellites, rocket bodies, and fragments generated from explosions, collisions, or faulty payload assembly.

Loading next visibility...
Identifier
40202, 2012-008M
Orbit
HEO
Country
Flag of CNCN / PRC
Related business
Manufacturer
CALT
Mission
Spacecraft
Bus & Motor
Unknown
Mass
Unknown
Launch date (UTC)
2012-02-24 (14 years ago)
Launch vehicle
Unknown
Launch site
Xichang Space Center, China (XSC)
Object type
Payload
Rocket body
Debris
Shape & HBR
Unknown shape, 0.1 m
Radar Cross Section
Medium (>0.1 m² and <1 m²)

Expand to show TLE details & history
Last TLE update: 5 days ago

TLE from 5 days ago
0 CZ-3C DEB
1 40202U 12008M   26172.99338255  .00000301  00000-0  20825-2 0  9994
2 40202  19.8245 192.2745 7110296 199.7305 104.8460  2.36550741111064
Epoch: 2026-06-21T23:50Z
TLE epoch observation values (Epoch: 2026-06-21T23:50:28.252Z)
Latitude
-0.00017°
Longitude
-75.55848°
Altitude
29,162.66 km
Speed
2.383 km/s
True Right ascension
12h 48m 58s
True Declination
0° 00' 01"
Sunlit
Object was in daylight at epoch
Visualization orbit readout
Latitude
Unknown
Longitude
Unknown
Altitude
Unknown
Speed
Unknown
Apparent Right ascension
Unknown
Apparent Declination
Unknown
Sunlit
N/A
Visualization observer readout
Local Sidereal Time
18:45:46
Azimuth
Unknown
Elevation
Unknown
Doppler factor
Unknown
Orbital elements
Apogee altitude
34,340.244 km
Perigee altitude
498.662 km
Semi-major axis
23,797.59 km
Eccentricity
0.71103
Inclination
19.8245°
RAAN
192.2745°
Arg. of periapsis
199.7305°
True anomaly
160.25721°
Mean anomaly
104.846°
Eccentric anomaly
134.10117°
Mean motion
0.59121 °/min
Orbital period
608.92 mins
BSTAR
0.0020825
Loading maneuver chart data...
Computing Atmospheric mass density...
Loading historical data...
Loading historical data...
Loading historical data...
Loading historical data...
Loading historical data...
Loading historical data...
Loading historical data...

Documentation

Showing up to 5 results
|